Time,TemperatureF,DewpointF,PressureIn,WindDirection,WindDirectionDegrees,WindSpeedMPH,WindSpeedGustMPH,Humidity,HourlyPrecipIn,Conditions,Clouds,dailyrainin,SoftwareType,DateUTC
2013-05-11 00:00:00,61.8,60.6,29.87,SE,132,1.0,1.0,96,0.00,,,0.60,Wunderground v.1.15,2013-05-11 04:00:00,
2013-05-11 00:05:00,61.8,60.6,29.87,SSW,212,1.0,1.0,96,0.00,,,0.00,Wunderground v.1.15,2013-05-11 04:05:00,
2013-05-11 00:10:00,61.7,60.5,29.87,SSW,204,1.0,3.0,96,0.00,,,0.00,Wunderground v.1.15,2013-05-11 04:10:00,
2013-05-11 00:15:00,61.7,60.5,29.87,WSW,250,2.0,3.0,96,0.00,,,0.00,Wunderground v.1.15,2013-05-11 04:15:00,
2013-05-11 00:20:00,61.8,60.6,29.87,WSW,239,2.0,2.0,96,0.00,,,0.00,Wunderground v.1.15,2013-05-11 04:20:00,
2013-05-11 00:30:00,61.8,60.4,29.86,SSW,200,2.0,3.0,95,0.00,,,0.00,Wunderground v.1.15,2013-05-11 04:30:00,
2013-05-11 00:35:00,61.6,60.2,29.86,SSW,204,2.0,3.0,95,0.00,,,0.00,Wunderground v.1.15,2013-05-11 04:35:00,
2013-05-11 00:40:00,61.6,60.2,29.86,SSW,208,3.0,4.0,95,0.00,,,0.00,Wunderground v.1.15,2013-05-11 04:40:00,
2013-05-11 00:45:00,61.6,60.2,29.86,South,191,3.0,4.0,95,0.00,,,0.00,Wunderground v.1.15,2013-05-11 04:45:00,
2013-05-11 00:50:00,61.5,59.8,29.86,WSW,238,3.0,3.0,94,0.00,,,0.00,Wunderground v.1.15,2013-05-11 04:50:00,
2013-05-11 00:55:00,61.5,59.8,29.86,SSW,205,3.0,3.0,94,0.00,,,0.00,Wunderground v.1.15,2013-05-11 04:55:00,
2013-05-11 01:00:00,61.5,59.8,29.86,SW,226,3.0,3.0,94,0.00,,,0.00,Wunderground v.1.15,2013-05-11 05:00:00,
2013-05-11 01:05:00,61.5,59.8,29.85,SSW,195,2.0,3.0,94,0.00,,,0.00,Wunderground v.1.15,2013-05-11 05:05:00,
2013-05-11 01:10:00,61.4,59.7,29.85,SSW,212,2.0,2.0,94,0.00,,,0.00,Wunderground v.1.15,2013-05-11 05:10:00,
2013-05-11 01:15:00,61.3,59.6,29.85,South,184,2.0,2.0,94,0.00,,,0.00,Wunderground v.1.15,2013-05-11 05:15:00,
2013-05-11 01:20:00,61.3,59.6,29.85,South,190,2.0,3.0,94,0.00,,,0.00,Wunderground v.1.15,2013-05-11 05:20:00,
2013-05-11 01:25:00,61.2,59.5,29.85,South,174,3.0,4.0,94,0.00,,,0.00,Wunderground v.1.15,2013-05-11 05:25:00,
2013-05-11 01:30:00,61.1,59.4,29.84,SSW,212,3.0,3.0,94,0.00,,,0.00,Wunderground v.1.15,2013-05-11 05:30:00,
2013-05-11 01:35:00,61.2,59.5,29.85,SSW,197,3.0,4.0,94,0.00,,,0.00,Wunderground v.1.15,2013-05-11 05:35:00,
2013-05-11 01:40:00,61.2,59.5,29.84,SW,214,3.0,3.0,94,0.00,,,0.00,Wunderground v.1.15,2013-05-11 05:40:00,
2013-05-11 01:45:00,61.2,59.5,29.84,SSW,201,2.0,3.0,94,0.00,,,0.00,Wunderground v.1.15,2013-05-11 05:45:00,
2013-05-11 01:50:00,61.2,59.5,29.84,SW,235,2.0,2.0,94,0.00,,,0.00,Wunderground v.1.15,2013-05-11 05:50:00,
2013-05-11 01:55:00,61.3,59.6,29.84,SW,221,2.0,2.0,94,0.00,,,0.00,Wunderground v.1.15,2013-05-11 05:55:00,
2013-05-11 02:00:00,61.3,59.6,29.84,SSW,207,2.0,2.0,94,0.00,,,0.00,Wunderground v.1.15,2013-05-11 06:00:00,
2013-05-11 02:10:00,61.2,59.5,29.84,South,172,1.0,1.0,94,0.00,,,0.00,Wunderground v.1.15,2013-05-11 06:10:00,
2013-05-11 02:15:00,61.1,59.4,29.84,SE,134,0.0,1.0,94,0.00,,,0.00,Wunderground v.1.15,2013-05-11 06:15:00,
2013-05-11 02:20:00,61.1,59.1,29.83,SE,129,0.0,1.0,93,0.00,,,0.00,Wunderground v.1.15,2013-05-11 06:20:00,
2013-05-11 02:25:00,61.0,59.3,29.83,ESE,117,0.0,1.0,94,0.00,,,0.00,Wunderground v.1.15,2013-05-11 06:25:00,
2013-05-11 02:30:00,61.0,59.3,29.84,SSW,201,1.0,1.0,94,0.00,,,0.00,Wunderground v.1.15,2013-05-11 06:30:00,
2013-05-11 02:35:00,60.9,59.2,29.84,SSW,203,0.0,1.0,94,0.00,,,0.00,Wunderground v.1.15,2013-05-11 06:35:00,
2013-05-11 02:40:00,60.9,59.2,29.84,WSW,258,0.0,0.0,94,0.00,,,0.00,Wunderground v.1.15,2013-05-11 06:40:00,
2013-05-11 02:45:00,60.8,59.1,29.83,West,259,0.0,0.0,94,0.00,,,0.00,Wunderground v.1.15,2013-05-11 06:45:00,
2013-05-11 02:50:00,60.8,59.1,29.83,WSW,258,0.0,0.0,94,0.00,,,0.00,Wunderground v.1.15,2013-05-11 06:50:00,
2013-05-11 02:55:00,60.6,58.9,29.83,WSW,255,0.0,0.0,94,0.00,,,0.00,Wunderground v.1.15,2013-05-11 06:55:00,
2013-05-11 03:00:00,60.6,58.9,29.83,WSW,254,0.0,0.0,94,0.00,,,0.00,Wunderground v.1.15,2013-05-11 07:00:00,
2013-05-11 03:05:00,60.6,58.9,29.83,WSW,255,0.0,0.0,94,0.00,,,0.00,Wunderground v.1.15,2013-05-11 07:05:00,
2013-05-11 03:10:00,60.6,59.2,29.83,WSW,255,0.0,0.0,95,0.00,,,0.00,Wunderground v.1.15,2013-05-11 07:10:00,
2013-05-11 03:15:00,60.6,59.2,29.82,ESE,118,0.0,0.0,95,0.00,,,0.00,Wunderground v.1.15,2013-05-11 07:15:00,
2013-05-11 03:20:00,60.6,59.2,29.83,SE,131,0.0,0.0,95,0.00,,,0.00,Wunderground v.1.15,2013-05-11 07:20:00,
2013-05-11 03:25:00,60.6,59.2,29.83,SE,127,0.0,0.0,95,0.00,,,0.00,Wunderground v.1.15,2013-05-11 07:25:00,
2013-05-11 03:30:00,60.5,59.1,29.83,West,262,0.0,0.0,95,0.00,,,0.00,Wunderground v.1.15,2013-05-11 07:30:00,
2013-05-11 03:35:00,60.5,59.1,29.82,WSW,247,0.0,0.0,95,0.00,,,0.00,Wunderground v.1.15,2013-05-11 07:35:00,
2013-05-11 03:45:00,60.3,58.9,29.82,WSW,248,0.0,0.0,95,0.00,,,0.00,Wunderground v.1.15,2013-05-11 07:45:00,
2013-05-11 03:50:00,60.2,58.8,29.82,WSW,247,0.0,0.0,95,0.00,,,0.00,Wunderground v.1.15,2013-05-11 07:50:00,
2013-05-11 03:55:00,60.1,58.7,29.82,WSW,247,0.0,0.0,95,0.00,,,0.00,Wunderground v.1.15,2013-05-11 07:55:00,
2013-05-11 04:00:00,60.1,58.7,29.82,WSW,248,0.0,0.0,95,0.00,,,0.00,Wunderground v.1.15,2013-05-11 08:00:00,
2013-05-11 04:05:00,60.0,58.6,29.82,WSW,248,0.0,0.0,95,0.00,,,0.00,Wunderground v.1.15,2013-05-11 08:05:00,
2013-05-11 04:10:00,59.9,58.5,29.81,WSW,248,0.0,0.0,95,0.00,,,0.00,Wunderground v.1.15,2013-05-11 08:10:00,
2013-05-11 04:15:00,59.8,58.4,29.81,WSW,248,0.0,0.0,95,0.00,,,0.00,Wunderground v.1.15,2013-05-11 08:15:00,
2013-05-11 04:20:00,59.7,58.6,29.81,WSW,248,0.0,0.0,96,0.00,,,0.00,Wunderground v.1.15,2013-05-11 08:20:00,
2013-05-11 04:25:00,59.5,58.4,29.81,SSE,155,0.0,0.0,96,0.00,,,0.00,Wunderground v.1.15,2013-05-11 08:25:00,
2013-05-11 04:30:00,59.4,58.3,29.81,SSE,155,0.0,0.0,96,0.00,,,0.00,Wunderground v.1.15,2013-05-11 08:30:00,
2013-05-11 04:35:00,59.5,58.4,29.81,West,270,0.0,0.0,96,0.00,,,0.00,Wunderground v.1.15,2013-05-11 08:35:00,
2013-05-11 04:40:00,59.6,58.5,29.81,WSW,249,1.0,4.0,96,0.00,,,0.00,Wunderground v.1.15,2013-05-11 08:40:00,
2013-05-11 04:45:00,59.9,58.8,29.81,SW,231,2.0,4.0,96,0.00,,,0.00,Wunderground v.1.15,2013-05-11 08:45:00,
2013-05-11 04:50:00,60.2,59.1,29.80,SW,222,3.0,3.0,96,0.00,,,0.00,Wunderground v.1.15,2013-05-11 08:50:00,
2013-05-11 04:55:00,60.4,59.0,29.80,SSW,212,3.0,3.0,95,0.00,,,0.00,Wunderground v.1.15,2013-05-11 08:55:00,
2013-05-11 05:00:00,60.5,59.1,29.80,WSW,238,3.0,3.0,95,0.00,,,0.00,Wunderground v.1.15,2013-05-11 09:00:00,
2013-05-11 05:10:00,60.5,58.8,29.80,SW,224,2.0,2.0,94,0.00,,,0.00,Wunderground v.1.15,2013-05-11 09:10:00,
2013-05-11 05:15:00,60.4,58.7,29.80,WSW,248,1.0,2.0,94,0.00,,,0.00,Wunderground v.1.15,2013-05-11 09:15:00,
2013-05-11 05:20:00,60.3,58.6,29.80,WSW,248,0.0,0.0,94,0.00,,,0.00,Wunderground v.1.15,2013-05-11 09:20:00,
2013-05-11 05:25:00,60.1,58.4,29.80,WSW,246,0.0,0.0,94,0.00,,,0.00,Wunderground v.1.15,2013-05-11 09:25:00,
2013-05-11 05:30:00,59.9,58.2,29.80,WSW,246,0.0,0.0,94,0.00,,,0.00,Wunderground v.1.15,2013-05-11 09:30:00,
2013-05-11 05:35:00,59.7,58.0,29.80,WSW,246,0.0,0.0,94,0.00,,,0.00,Wunderground v.1.15,2013-05-11 09:35:00,
2013-05-11 05:40:00,59.6,58.2,29.80,WSW,247,0.0,0.0,95,0.00,,,0.00,Wunderground v.1.15,2013-05-11 09:40:00,
2013-05-11 05:45:00,59.5,58.1,29.80,WSW,247,0.0,0.0,95,0.00,,,0.00,Wunderground v.1.15,2013-05-11 09:45:00,
2013-05-11 05:50:00,59.3,57.9,29.80,WSW,246,0.0,0.0,95,0.00,,,0.00,Wunderground v.1.15,2013-05-11 09:50:00,
2013-05-11 05:55:00,59.3,57.9,29.80,SSW,212,0.0,0.0,95,0.00,,,0.00,Wunderground v.1.15,2013-05-11 09:55:00,
2013-05-11 06:00:00,59.5,58.4,29.80,WSW,245,1.0,1.0,96,0.00,,,0.00,Wunderground v.1.15,2013-05-11 10:00:00,
2013-05-11 06:05:00,59.6,58.5,29.80,SSW,200,1.0,1.0,96,0.00,,,0.00,Wunderground v.1.15,2013-05-11 10:05:00,
2013-05-11 06:10:00,59.7,58.6,29.80,SSW,203,1.0,1.0,96,0.00,,,0.00,Wunderground v.1.15,2013-05-11 10:10:00,
2013-05-11 06:15:00,59.6,58.2,29.80,SSW,203,1.0,1.0,95,0.00,,,0.00,Wunderground v.1.15,2013-05-11 10:15:00,
2013-05-11 06:20:00,59.7,58.6,29.80,SSW,198,1.0,1.0,96,0.00,,,0.00,Wunderground v.1.15,2013-05-11 10:20:00,
2013-05-11 06:25:00,59.9,58.8,29.80,SSW,202,2.0,3.0,96,0.00,,,0.00,Wunderground v.1.15,2013-05-11 10:25:00,
2013-05-11 06:30:00,60.1,59.0,29.81,South,191,2.0,2.0,96,0.00,,,0.00,Wunderground v.1.15,2013-05-11 10:30:00,
2013-05-11 06:35:00,60.1,58.7,29.80,SW,221,2.0,2.0,95,0.00,,,0.00,Wunderground v.1.15,2013-05-11 10:35:00,
2013-05-11 06:40:00,60.1,58.7,29.81,SSW,201,2.0,3.0,95,0.00,,,0.00,Wunderground v.1.15,2013-05-11 10:40:00,
2013-05-11 06:45:00,60.2,58.8,29.81,SSW,201,2.0,3.0,95,0.00,,,0.00,Wunderground v.1.15,2013-05-11 10:45:00,
2013-05-11 06:50:00,60.3,58.9,29.80,SSW,197,2.0,2.0,95,0.00,,,0.00,Wunderground v.1.15,2013-05-11 10:50:00,
2013-05-11 06:55:00,60.4,59.0,29.80,SW,217,2.0,2.0,95,0.00,,,0.00,Wunderground v.1.15,2013-05-11 10:55:00,
2013-05-11 07:00:00,60.6,59.2,29.80,SSW,201,2.0,2.0,95,0.00,,,0.00,Wunderground v.1.15,2013-05-11 11:00:00,
2013-05-11 07:05:00,60.8,59.4,29.79,SSW,210,2.0,2.0,95,0.00,,,0.00,Wunderground v.1.15,2013-05-11 11:05:00,
2013-05-11 07:10:00,61.1,59.7,29.80,South,173,2.0,4.0,95,0.00,,,0.00,Wunderground v.1.15,2013-05-11 11:10:00,
2013-05-11 07:15:00,61.3,59.6,29.80,WSW,245,3.0,4.0,94,0.00,,,0.00,Wunderground v.1.15,2013-05-11 11:15:00,
2013-05-11 07:20:00,61.4,59.7,29.80,SSW,200,3.0,3.0,94,0.00,,,0.00,Wunderground v.1.15,2013-05-11 11:20:00,
2013-05-11 07:25:00,61.7,60.0,29.80,SW,214,2.0,3.0,94,0.00,,,0.00,Wunderground v.1.15,2013-05-11 11:25:00,
2013-05-11 07:30:00,61.9,60.2,29.80,SSW,200,2.0,2.0,94,0.00,,,0.00,Wunderground v.1.15,2013-05-11 11:30:00,
2013-05-11 07:35:00,62.1,60.1,29.80,WSW,249,2.0,2.0,93,0.00,,,0.00,Wunderground v.1.15,2013-05-11 11:35:00,
2013-05-11 07:40:00,62.4,60.3,29.80,SW,218,2.0,5.0,93,0.00,,,0.00,Wunderground v.1.15,2013-05-11 11:40:00,
2013-05-11 07:45:00,62.6,60.2,29.80,WSW,242,3.0,5.0,92,0.00,,,0.00,Wunderground v.1.15,2013-05-11 11:45:00,
2013-05-11 07:50:00,62.8,60.1,29.79,SW,222,3.0,3.0,91,0.00,,,0.00,Wunderground v.1.15,2013-05-11 11:50:00,
2013-05-11 07:55:00,62.9,60.2,29.80,WSW,247,3.0,3.0,91,0.00,,,0.00,Wunderground v.1.15,2013-05-11 11:55:00,
2013-05-11 08:00:00,63.0,60.3,29.79,WSW,240,3.0,3.0,91,0.00,,,0.00,Wunderground v.1.15,2013-05-11 12:00:00,
2013-05-11 08:05:00,63.2,60.5,29.79,SW,227,2.0,3.0,91,0.00,,,0.00,Wunderground v.1.15,2013-05-11 12:05:00,
2013-05-11 08:10:00,63.1,60.4,29.80,SW,225,3.0,-999.0,91,0.00,,,0.00,Wunderground v.1.15,2013-05-11 12:10:00,
2013-05-11 08:15:00,63.9,60.6,29.80,SW,225,2.0,-999.0,89,0.00,,,0.00,Wunderground v.1.15,2013-05-11 12:15:00,
2013-05-11 08:20:00,63.9,60.6,29.80,SW,225,2.0,-999.0,89,0.00,,,0.00,Wunderground v.1.15,2013-05-11 12:20:00,
2013-05-11 08:25:00,63.9,60.6,29.80,SW,225,2.0,-999.0,89,0.00,,,0.00,Wunderground v.1.15,2013-05-11 12:25:00,
2013-05-11 08:30:00,63.9,60.6,29.80,SW,225,2.0,-999.0,89,0.00,,,0.00,Wunderground v.1.15,2013-05-11 12:30:00,
2013-05-11 08:35:00,63.9,60.6,29.80,SW,225,2.0,-999.0,89,0.00,,,0.00,Wunderground v.1.15,2013-05-11 12:35:00,
2013-05-11 08:40:00,63.9,60.6,29.80,SW,225,2.0,-999.0,89,0.00,,,0.00,Wunderground v.1.15,2013-05-11 12:40:00,
2013-05-11 08:45:00,64.7,61.1,29.80,SW,225,3.0,-999.0,88,0.00,,,0.00,Wunderground v.1.15,2013-05-11 12:45:00,
2013-05-11 08:50:00,64.7,61.1,29.80,SW,225,3.0,-999.0,88,0.00,,,0.00,Wunderground v.1.15,2013-05-11 12:50:00,
2013-05-11 08:55:00,64.7,61.1,29.80,SW,225,3.0,-999.0,88,0.00,,,0.00,Wunderground v.1.15,2013-05-11 12:55:00,
2013-05-11 09:00:00,64.7,61.1,29.80,SW,225,3.0,-999.0,88,0.00,,,0.00,Wunderground v.1.15,2013-05-11 13:00:00,
2013-05-11 09:05:00,64.7,61.1,29.80,SW,225,3.0,-999.0,88,0.00,,,0.00,Wunderground v.1.15,2013-05-11 13:05:00,
2013-05-11 09:10:00,64.7,61.1,29.80,SW,225,3.0,-999.0,88,0.00,,,0.00,Wunderground v.1.15,2013-05-11 13:10:00,
2013-05-11 09:15:00,65.5,61.5,29.79,WSW,248,2.0,-999.0,87,0.00,,,0.00,Wunderground v.1.15,2013-05-11 13:15:00,
2013-05-11 09:20:00,65.5,61.5,29.79,WSW,248,2.0,-999.0,87,0.00,,,0.00,Wunderground v.1.15,2013-05-11 13:20:00,
2013-05-11 09:25:00,65.5,61.5,29.79,WSW,248,2.0,-999.0,87,0.00,,,0.00,Wunderground v.1.15,2013-05-11 13:25:00,
2013-05-11 09:30:00,65.5,61.5,29.79,WSW,248,2.0,-999.0,87,0.00,,,0.00,Wunderground v.1.15,2013-05-11 13:30:00,
2013-05-11 09:35:00,65.5,61.5,29.79,WSW,248,2.0,-999.0,87,0.00,,,0.00,Wunderground v.1.15,2013-05-11 13:35:00,
2013-05-11 09:40:00,65.5,61.5,29.79,WSW,248,2.0,-999.0,87,0.00,,,0.00,Wunderground v.1.15,2013-05-11 13:40:00,
2013-05-11 09:45:00,65.2,61.6,29.79,SW,225,3.0,-999.0,88,0.00,,,0.00,Wunderground v.1.15,2013-05-11 13:45:00,
2013-05-11 09:50:00,65.2,61.6,29.79,SW,225,3.0,-999.0,88,0.00,,,0.00,Wunderground v.1.15,2013-05-11 13:50:00,
2013-05-11 09:55:00,65.2,61.6,29.79,SW,225,3.0,-999.0,88,0.00,,,0.00,Wunderground v.1.15,2013-05-11 13:55:00,
2013-05-11 10:00:00,65.2,61.6,29.79,SW,225,3.0,-999.0,88,0.00,,,0.00,Wunderground v.1.15,2013-05-11 14:00:00,
2013-05-11 10:05:00,65.2,61.6,29.79,SW,225,3.0,-999.0,88,0.00,,,0.00,Wunderground v.1.15,2013-05-11 14:05:00,
2013-05-11 10:10:00,65.2,61.6,29.79,SW,225,3.0,-999.0,88,0.00,,,0.00,Wunderground v.1.15,2013-05-11 14:10:00,
2013-05-11 10:15:00,68.3,62.6,29.77,SSW,203,3.0,-999.0,82,0.00,,,0.00,Wunderground v.1.15,2013-05-11 14:15:00,
2013-05-11 10:20:00,68.3,62.6,29.77,SSW,203,3.0,-999.0,82,0.00,,,0.00,Wunderground v.1.15,2013-05-11 14:20:00,
2013-05-11 10:25:00,68.3,62.6,29.77,SSW,203,3.0,-999.0,82,0.00,,,0.00,Wunderground v.1.15,2013-05-11 14:25:00,
2013-05-11 10:30:00,68.3,62.6,29.77,SSW,203,3.0,-999.0,82,0.00,,,0.00,Wunderground v.1.15,2013-05-11 14:30:00,
2013-05-11 10:35:00,68.3,62.6,29.77,SSW,203,3.0,-999.0,82,0.00,,,0.00,Wunderground v.1.15,2013-05-11 14:35:00,
2013-05-11 10:40:00,68.3,62.6,29.77,SSW,203,3.0,-999.0,82,0.00,,,0.00,Wunderground v.1.15,2013-05-11 14:40:00,
2013-05-11 10:45:00,68.7,61.9,29.78,SSW,203,4.0,-999.0,79,0.00,,,0.00,Wunderground v.1.15,2013-05-11 14:45:00,
2013-05-11 10:50:00,68.7,61.9,29.78,SSW,203,4.0,-999.0,79,0.00,,,0.00,Wunderground v.1.15,2013-05-11 14:50:00,
2013-05-11 10:55:00,68.7,61.9,29.78,SSW,203,4.0,-999.0,79,0.00,,,0.00,Wunderground v.1.15,2013-05-11 14:55:00,
2013-05-11 11:00:00,68.7,61.9,29.78,SSW,203,4.0,-999.0,79,0.00,,,0.00,Wunderground v.1.15,2013-05-11 15:00:00,
2013-05-11 11:05:00,68.7,61.9,29.78,SSW,203,4.0,-999.0,79,0.00,,,0.00,Wunderground v.1.15,2013-05-11 15:05:00,
2013-05-11 11:10:00,68.7,61.9,29.78,SSW,203,4.0,-999.0,79,0.00,,,0.00,Wunderground v.1.15,2013-05-11 15:10:00,
2013-05-11 11:15:00,71.0,62.7,29.78,SSW,203,5.0,-999.0,75,0.00,,,0.00,Wunderground v.1.15,2013-05-11 15:15:00,
2013-05-11 11:20:00,71.0,62.7,29.78,SSW,203,5.0,-999.0,75,0.00,,,0.00,Wunderground v.1.15,2013-05-11 15:20:00,
2013-05-11 11:25:00,71.0,62.7,29.78,SSW,203,5.0,-999.0,75,0.00,,,0.00,Wunderground v.1.15,2013-05-11 15:25:00,
2013-05-11 11:30:00,71.0,62.7,29.78,SSW,203,5.0,-999.0,75,0.00,,,0.00,Wunderground v.1.15,2013-05-11 15:30:00,
2013-05-11 11:35:00,71.0,62.7,29.78,SSW,203,5.0,-999.0,75,0.00,,,0.00,Wunderground v.1.15,2013-05-11 15:35:00,
2013-05-11 11:40:00,71.0,62.7,29.78,SSW,203,5.0,-999.0,75,0.00,,,0.00,Wunderground v.1.15,2013-05-11 15:40:00,
2013-05-11 11:45:00,72.9,62.5,29.76,SW,225,7.0,-999.0,70,0.00,,,0.00,Wunderground v.1.15,2013-05-11 15:45:00,
2013-05-11 11:50:00,72.9,62.5,29.76,SW,225,7.0,-999.0,70,0.00,,,0.00,Wunderground v.1.15,2013-05-11 15:50:00,
2013-05-11 11:55:00,72.9,62.5,29.76,SW,225,7.0,-999.0,70,0.00,,,0.00,Wunderground v.1.15,2013-05-11 15:55:00,
2013-05-11 12:00:00,72.9,62.5,29.76,SW,225,7.0,-999.0,70,0.00,,,0.00,Wunderground v.1.15,2013-05-11 16:00:00,
2013-05-11 12:05:00,72.9,62.5,29.76,SW,225,7.0,-999.0,70,0.00,,,0.00,Wunderground v.1.15,2013-05-11 16:05:00,
2013-05-11 12:10:00,72.9,62.5,29.76,SW,225,7.0,-999.0,70,0.00,,,0.00,Wunderground v.1.15,2013-05-11 16:10:00,
2013-05-11 12:15:00,74.0,61.9,29.75,SSW,203,6.0,-999.0,66,0.00,,,0.00,Wunderground v.1.15,2013-05-11 16:15:00,
2013-05-11 12:20:00,74.0,61.9,29.75,SSW,203,6.0,-999.0,66,0.00,,,0.00,Wunderground v.1.15,2013-05-11 16:20:00,
2013-05-11 12:25:00,74.0,61.9,29.75,SSW,203,6.0,-999.0,66,0.00,,,0.00,Wunderground v.1.15,2013-05-11 16:25:00,
2013-05-11 12:30:00,74.0,61.9,29.75,SSW,203,6.0,-999.0,66,0.00,,,0.00,Wunderground v.1.15,2013-05-11 16:30:00,
2013-05-11 12:35:00,74.0,61.9,29.75,SSW,203,6.0,-999.0,66,0.00,,,0.00,Wunderground v.1.15,2013-05-11 16:35:00,
2013-05-11 12:40:00,74.0,61.9,29.75,SSW,203,6.0,-999.0,66,0.00,,,0.00,Wunderground v.1.15,2013-05-11 16:40:00,
2013-05-11 12:45:00,74.8,61.4,29.75,SSW,203,6.0,-999.0,63,0.00,,,0.00,Wunderground v.1.15,2013-05-11 16:45:00,
2013-05-11 12:50:00,74.8,61.4,29.75,SSW,203,6.0,-999.0,63,0.00,,,0.00,Wunderground v.1.15,2013-05-11 16:50:00,
2013-05-11 12:55:00,74.8,61.4,29.75,SSW,203,6.0,-999.0,63,0.00,,,0.00,Wunderground v.1.15,2013-05-11 16:55:00,
2013-05-11 13:00:00,74.8,61.4,29.75,SSW,203,6.0,-999.0,63,0.00,,,0.00,Wunderground v.1.15,2013-05-11 17:00:00,
2013-05-11 13:05:00,74.8,61.4,29.75,SSW,203,6.0,-999.0,63,0.00,,,0.00,Wunderground v.1.15,2013-05-11 17:05:00,
2013-05-11 13:10:00,74.8,61.4,29.75,SSW,203,6.0,-999.0,63,0.00,,,0.00,Wunderground v.1.15,2013-05-11 17:10:00,
2013-05-11 13:15:00,74.2,60.8,29.74,SSW,203,6.0,-999.0,63,0.00,,,0.00,Wunderground v.1.15,2013-05-11 17:15:00,
2013-05-11 13:20:00,74.2,60.8,29.74,SSW,203,6.0,-999.0,63,0.00,,,0.00,Wunderground v.1.15,2013-05-11 17:20:00,
2013-05-11 13:25:00,74.2,60.8,29.74,SSW,203,6.0,-999.0,63,0.00,,,0.00,Wunderground v.1.15,2013-05-11 17:25:00,
2013-05-11 13:30:00,74.2,60.8,29.74,SSW,203,6.0,-999.0,63,0.00,,,0.00,Wunderground v.1.15,2013-05-11 17:30:00,
2013-05-11 13:35:00,74.2,60.8,29.74,SSW,203,6.0,-999.0,63,0.00,,,0.00,Wunderground v.1.15,2013-05-11 17:35:00,
2013-05-11 13:40:00,74.2,60.8,29.74,SSW,203,6.0,-999.0,63,0.00,,,0.00,Wunderground v.1.15,2013-05-11 17:40:00,
2013-05-11 13:45:00,74.7,60.8,29.74,SSW,203,5.0,-999.0,62,0.00,,,0.00,Wunderground v.1.15,2013-05-11 17:45:00,
2013-05-11 13:50:00,74.7,60.8,29.74,SSW,203,5.0,-999.0,62,0.00,,,0.00,Wunderground v.1.15,2013-05-11 17:50:00,
2013-05-11 13:55:00,74.7,60.8,29.74,SSW,203,5.0,-999.0,62,0.00,,,0.00,Wunderground v.1.15,2013-05-11 17:55:00,
2013-05-11 14:00:00,74.7,60.8,29.74,SSW,203,5.0,-999.0,62,0.00,,,0.00,Wunderground v.1.15,2013-05-11 18:00:00,
2013-05-11 14:05:00,74.7,60.8,29.74,SSW,203,5.0,-999.0,62,0.00,,,0.00,Wunderground v.1.15,2013-05-11 18:05:00,
2013-05-11 14:10:00,74.7,60.8,29.74,SSW,203,5.0,-999.0,62,0.00,,,0.00,Wunderground v.1.15,2013-05-11 18:10:00,
2013-05-11 14:15:00,74.6,60.7,29.74,SW,225,5.0,-999.0,62,0.00,,,0.00,Wunderground v.1.15,2013-05-11 18:15:00,
2013-05-11 14:20:00,74.6,60.7,29.74,SW,225,5.0,-999.0,62,0.00,,,0.00,Wunderground v.1.15,2013-05-11 18:20:00,
2013-05-11 14:25:00,74.6,60.7,29.74,SW,225,5.0,-999.0,62,0.00,,,0.00,Wunderground v.1.15,2013-05-11 18:25:00,
2013-05-11 14:30:00,74.6,60.7,29.74,SW,225,5.0,-999.0,62,0.00,,,0.00,Wunderground v.1.15,2013-05-11 18:30:00,
2013-05-11 14:35:00,74.6,60.7,29.74,SW,225,5.0,-999.0,62,0.00,,,0.00,Wunderground v.1.15,2013-05-11 18:35:00,
2013-05-11 14:40:00,74.6,60.7,29.74,SW,225,5.0,-999.0,62,0.00,,,0.00,Wunderground v.1.15,2013-05-11 18:40:00,
2013-05-11 14:45:00,75.7,61.3,29.73,SW,225,4.0,-999.0,61,0.00,,,0.00,Wunderground v.1.15,2013-05-11 18:45:00,
2013-05-11 14:50:00,75.7,61.3,29.73,SW,225,4.0,-999.0,61,0.00,,,0.00,Wunderground v.1.15,2013-05-11 18:50:00,
2013-05-11 14:55:00,75.7,61.3,29.73,SW,225,4.0,-999.0,61,0.00,,,0.00,Wunderground v.1.15,2013-05-11 18:55:00,
2013-05-11 15:00:00,75.7,61.3,29.73,SW,225,4.0,-999.0,61,0.00,,,0.00,Wunderground v.1.15,2013-05-11 19:00:00,
2013-05-11 15:05:00,75.7,61.3,29.73,SW,225,4.0,-999.0,61,0.00,,,0.00,Wunderground v.1.15,2013-05-11 19:05:00,
2013-05-11 15:10:00,75.7,61.3,29.73,SW,225,4.0,-999.0,61,0.00,,,0.00,Wunderground v.1.15,2013-05-11 19:10:00,
2013-05-11 15:15:00,69.4,58.4,29.73,West,270,4.0,-999.0,68,0.00,,,0.00,Wunderground v.1.15,2013-05-11 19:15:00,
2013-05-11 15:20:00,69.4,58.4,29.73,West,270,4.0,-999.0,68,0.00,,,0.00,Wunderground v.1.15,2013-05-11 19:20:00,
2013-05-11 15:25:00,69.4,58.4,29.73,West,270,4.0,-999.0,68,0.00,,,0.00,Wunderground v.1.15,2013-05-11 19:25:00,
2013-05-11 15:30:00,69.4,58.4,29.73,West,270,4.0,-999.0,68,0.00,,,0.00,Wunderground v.1.15,2013-05-11 19:30:00,
2013-05-11 15:35:00,69.4,58.4,29.73,West,270,4.0,-999.0,68,0.00,,,0.00,Wunderground v.1.15,2013-05-11 19:35:00,
2013-05-11 15:40:00,69.4,58.4,29.73,West,270,4.0,-999.0,68,0.00,,,0.00,Wunderground v.1.15,2013-05-11 19:40:00,
2013-05-11 15:45:00,73.3,58.6,29.72,West,270,5.0,-999.0,60,0.00,,,0.00,Wunderground v.1.15,2013-05-11 19:45:00,
2013-05-11 15:50:00,73.3,58.6,29.72,West,270,5.0,-999.0,60,0.00,,,0.00,Wunderground v.1.15,2013-05-11 19:50:00,
2013-05-11 15:55:00,73.3,58.6,29.72,West,270,5.0,-999.0,60,0.00,,,0.00,Wunderground v.1.15,2013-05-11 19:55:00,
2013-05-11 16:00:00,73.3,58.6,29.72,West,270,5.0,-999.0,60,0.00,,,0.00,Wunderground v.1.15,2013-05-11 20:00:00,
2013-05-11 16:05:00,73.3,58.6,29.72,West,270,5.0,-999.0,60,0.00,,,0.00,Wunderground v.1.15,2013-05-11 20:05:00,
2013-05-11 16:10:00,73.3,58.6,29.72,West,270,5.0,-999.0,60,0.00,,,0.00,Wunderground v.1.15,2013-05-11 20:10:00,
2013-05-11 16:15:00,75.3,59.5,29.72,West,270,6.0,-999.0,58,0.00,,,0.00,Wunderground v.1.15,2013-05-11 20:15:00,
2013-05-11 16:20:00,75.3,59.5,29.72,West,270,6.0,-999.0,58,0.00,,,0.00,Wunderground v.1.15,2013-05-11 20:20:00,
2013-05-11 16:25:00,75.3,59.5,29.72,West,270,6.0,-999.0,58,0.00,,,0.00,Wunderground v.1.15,2013-05-11 20:25:00,
2013-05-11 16:30:00,75.3,59.5,29.72,West,270,6.0,-999.0,58,0.00,,,0.00,Wunderground v.1.15,2013-05-11 20:30:00,
2013-05-11 16:35:00,75.3,59.5,29.72,West,270,6.0,-999.0,58,0.00,,,0.00,Wunderground v.1.15,2013-05-11 20:35:00,
2013-05-11 16:40:00,75.3,59.5,29.72,West,270,6.0,-999.0,58,0.00,,,0.00,Wunderground v.1.15,2013-05-11 20:40:00,
2013-05-11 16:45:00,72.4,56.3,29.72,West,270,8.0,-999.0,57,0.00,,,0.00,Wunderground v.1.15,2013-05-11 20:45:00,
2013-05-11 16:50:00,72.4,56.3,29.72,West,270,8.0,-999.0,57,0.00,,,0.00,Wunderground v.1.15,2013-05-11 20:50:00,
2013-05-11 16:55:00,72.4,56.3,29.72,West,270,8.0,-999.0,57,0.00,,,0.00,Wunderground v.1.15,2013-05-11 20:55:00,
2013-05-11 17:00:00,72.4,56.3,29.72,West,270,8.0,-999.0,57,0.00,,,0.00,Wunderground v.1.15,2013-05-11 21:00:00,
2013-05-11 17:05:00,72.4,56.3,29.72,West,270,8.0,-999.0,57,0.00,,,0.00,Wunderground v.1.15,2013-05-11 21:05:00,
2013-05-11 17:10:00,72.4,56.3,29.72,West,270,8.0,-999.0,57,0.00,,,0.00,Wunderground v.1.15,2013-05-11 21:10:00,
2013-05-11 17:15:00,72.3,56.2,29.71,West,270,6.0,-999.0,57,0.00,,,0.00,Wunderground v.1.15,2013-05-11 21:15:00,
2013-05-11 17:20:00,72.3,56.2,29.71,West,270,6.0,-999.0,57,0.00,,,0.00,Wunderground v.1.15,2013-05-11 21:20:00,
2013-05-11 17:25:00,72.3,56.2,29.71,West,270,6.0,-999.0,57,0.00,,,0.00,Wunderground v.1.15,2013-05-11 21:25:00,
2013-05-11 17:30:00,72.3,56.2,29.71,West,270,6.0,-999.0,57,0.00,,,0.00,Wunderground v.1.15,2013-05-11 21:30:00,
2013-05-11 17:35:00,72.3,56.2,29.71,West,270,6.0,-999.0,57,0.00,,,0.00,Wunderground v.1.15,2013-05-11 21:35:00,
2013-05-11 17:40:00,72.3,56.2,29.71,West,270,6.0,-999.0,57,0.00,,,0.00,Wunderground v.1.15,2013-05-11 21:40:00,
2013-05-11 17:45:00,71.3,56.7,29.72,West,270,5.0,-999.0,60,0.00,,,0.00,Wunderground v.1.15,2013-05-11 21:45:00,
2013-05-11 17:50:00,71.3,56.7,29.72,West,270,5.0,-999.0,60,0.00,,,0.00,Wunderground v.1.15,2013-05-11 21:50:00,
2013-05-11 17:55:00,71.3,56.7,29.72,West,270,5.0,-999.0,60,0.00,,,0.00,Wunderground v.1.15,2013-05-11 21:55:00,
2013-05-11 18:00:00,71.3,56.7,29.72,West,270,5.0,-999.0,60,0.00,,,0.00,Wunderground v.1.15,2013-05-11 22:00:00,
2013-05-11 18:05:00,71.3,56.7,29.72,West,270,5.0,-999.0,60,0.00,,,0.00,Wunderground v.1.15,2013-05-11 22:05:00,
2013-05-11 18:10:00,71.3,56.7,29.72,West,270,5.0,-999.0,60,0.00,,,0.00,Wunderground v.1.15,2013-05-11 22:10:00,
2013-05-11 18:15:00,69.9,58.0,29.73,WSW,248,3.0,-999.0,66,0.00,,,0.00,Wunderground v.1.15,2013-05-11 22:15:00,
2013-05-11 18:20:00,69.9,58.0,29.73,WSW,248,3.0,-999.0,66,0.00,,,0.00,Wunderground v.1.15,2013-05-11 22:20:00,
2013-05-11 18:25:00,69.9,58.0,29.73,WSW,248,3.0,-999.0,66,0.00,,,0.00,Wunderground v.1.15,2013-05-11 22:25:00,
2013-05-11 18:30:00,69.9,58.0,29.73,WSW,248,3.0,-999.0,66,0.00,,,0.00,Wunderground v.1.15,2013-05-11 22:30:00,
2013-05-11 18:35:00,69.9,58.0,29.73,WSW,248,3.0,-999.0,66,0.00,,,0.00,Wunderground v.1.15,2013-05-11 22:35:00,
2013-05-11 18:40:00,69.9,58.0,29.73,WSW,248,3.0,-999.0,66,0.00,,,0.00,Wunderground v.1.15,2013-05-11 22:40:00,
2013-05-11 18:45:00,70.9,61.0,29.73,SW,225,1.0,-999.0,71,0.00,,,0.00,Wunderground v.1.15,2013-05-11 22:45:00,
2013-05-11 18:50:00,70.9,61.0,29.73,SW,225,1.0,-999.0,71,0.00,,,0.00,Wunderground v.1.15,2013-05-11 22:50:00,
2013-05-11 18:55:00,70.9,61.0,29.73,SW,225,1.0,-999.0,71,0.00,,,0.00,Wunderground v.1.15,2013-05-11 22:55:00,
2013-05-11 19:00:00,70.9,61.0,29.73,SW,225,1.0,-999.0,71,0.00,,,0.00,Wunderground v.1.15,2013-05-11 23:00:00,
2013-05-11 19:05:00,70.9,61.0,29.73,SW,225,1.0,-999.0,71,0.00,,,0.00,Wunderground v.1.15,2013-05-11 23:05:00,
2013-05-11 19:10:00,70.9,61.0,29.73,SW,225,1.0,-999.0,71,0.00,,,0.00,Wunderground v.1.15,2013-05-11 23:10:00,
2013-05-11 19:15:00,69.5,60.5,29.74,ESE,113,1.0,-999.0,73,0.00,,,0.00,Wunderground v.1.15,2013-05-11 23:15:00,
2013-05-11 19:20:00,69.5,60.5,29.74,ESE,113,1.0,-999.0,73,0.00,,,0.00,Wunderground v.1.15,2013-05-11 23:20:00,
2013-05-11 19:25:00,69.5,60.5,29.74,ESE,113,1.0,-999.0,73,0.00,,,0.00,Wunderground v.1.15,2013-05-11 23:25:00,
2013-05-11 19:30:00,69.5,60.5,29.74,ESE,113,1.0,-999.0,73,0.00,,,0.00,Wunderground v.1.15,2013-05-11 23:30:00,
2013-05-11 19:35:00,69.5,60.5,29.74,ESE,113,1.0,-999.0,73,0.00,,,0.00,Wunderground v.1.15,2013-05-11 23:35:00,
2013-05-11 19:40:00,69.5,60.5,29.74,ESE,113,1.0,-999.0,73,0.00,,,0.00,Wunderground v.1.15,2013-05-11 23:40:00,
2013-05-11 19:45:00,68.4,57.0,29.74,West,270,2.0,-999.0,67,0.00,,,0.00,Wunderground v.1.15,2013-05-11 23:45:00,
2013-05-11 19:50:00,68.4,57.0,29.74,West,270,2.0,-999.0,67,0.00,,,0.00,Wunderground v.1.15,2013-05-11 23:50:00,
2013-05-11 19:55:00,68.4,57.0,29.74,West,270,2.0,-999.0,67,0.00,,,0.00,Wunderground v.1.15,2013-05-11 23:55:00,
2013-05-11 20:00:00,68.4,57.0,29.74,West,270,2.0,-999.0,67,0.00,,,0.00,Wunderground v.1.15,2013-05-12 00:00:00,
2013-05-11 20:05:00,68.4,57.0,29.74,West,270,2.0,-999.0,67,0.00,,,0.00,Wunderground v.1.15,2013-05-12 00:05:00,
2013-05-11 20:10:00,68.4,57.0,29.74,West,270,2.0,-999.0,67,0.00,,,0.00,Wunderground v.1.15,2013-05-12 00:10:00,
2013-05-11 20:15:00,67.0,56.9,29.75,NW,315,2.0,-999.0,70,0.00,,,0.00,Wunderground v.1.15,2013-05-12 00:15:00,
2013-05-11 20:20:00,67.0,56.9,29.75,NW,315,2.0,-999.0,70,0.00,,,0.00,Wunderground v.1.15,2013-05-12 00:20:00,
2013-05-11 20:25:00,67.0,56.9,29.75,NW,315,2.0,-999.0,70,0.00,,,0.00,Wunderground v.1.15,2013-05-12 00:25:00,
2013-05-11 20:30:00,67.0,56.9,29.75,NW,315,2.0,-999.0,70,0.00,,,0.00,Wunderground v.1.15,2013-05-12 00:30:00,
2013-05-11 20:35:00,67.0,56.9,29.75,NW,315,2.0,-999.0,70,0.00,,,0.00,Wunderground v.1.15,2013-05-12 00:35:00,
2013-05-11 20:40:00,67.0,56.9,29.75,NW,315,2.0,-999.0,70,0.00,,,0.00,Wunderground v.1.15,2013-05-12 00:40:00,
2013-05-11 20:45:00,65.0,55.4,29.75,NW,315,1.0,-999.0,71,0.00,,,0.00,Wunderground v.1.15,2013-05-12 00:45:00,
2013-05-11 20:50:00,65.0,55.4,29.75,NW,315,1.0,-999.0,71,0.00,,,0.00,Wunderground v.1.15,2013-05-12 00:50:00,
2013-05-11 20:55:00,65.0,55.4,29.75,NW,315,1.0,-999.0,71,0.00,,,0.00,Wunderground v.1.15,2013-05-12 00:55:00,
2013-05-11 21:00:00,65.0,55.4,29.75,NW,315,1.0,-999.0,71,0.00,,,0.00,Wunderground v.1.15,2013-05-12 01:00:00,
2013-05-11 21:05:00,65.0,55.4,29.75,NW,315,1.0,-999.0,71,0.00,,,0.00,Wunderground v.1.15,2013-05-12 01:05:00,
2013-05-11 21:10:00,65.0,55.4,29.75,NW,315,1.0,-999.0,71,0.00,,,0.00,Wunderground v.1.15,2013-05-12 01:10:00,
2013-05-11 21:15:00,62.8,56.2,29.75,WSW,248,0.0,-999.0,79,0.00,,,0.00,Wunderground v.1.15,2013-05-12 01:15:00,
2013-05-11 21:20:00,62.8,56.2,29.75,WSW,248,0.0,-999.0,79,0.00,,,0.00,Wunderground v.1.15,2013-05-12 01:20:00,
2013-05-11 21:25:00,62.8,56.2,29.75,WSW,248,0.0,-999.0,79,0.00,,,0.00,Wunderground v.1.15,2013-05-12 01:25:00,
2013-05-11 21:30:00,62.8,56.2,29.75,WSW,248,0.0,-999.0,79,0.00,,,0.00,Wunderground v.1.15,2013-05-12 01:30:00,
2013-05-11 21:35:00,62.8,56.2,29.75,WSW,248,0.0,-999.0,79,0.00,,,0.00,Wunderground v.1.15,2013-05-12 01:35:00,
2013-05-11 21:40:00,62.8,56.2,29.75,WSW,248,0.0,-999.0,79,0.00,,,0.00,Wunderground v.1.15,2013-05-12 01:40:00,
2013-05-11 21:45:00,61.0,55.8,29.75,WSW,248,1.0,-999.0,83,0.00,,,0.00,Wunderground v.1.15,2013-05-12 01:45:00,
2013-05-11 21:50:00,61.0,55.8,29.75,WSW,248,1.0,-999.0,83,0.00,,,0.00,Wunderground v.1.15,2013-05-12 01:50:00,
2013-05-11 21:55:00,61.0,55.8,29.75,WSW,248,1.0,-999.0,83,0.00,,,0.00,Wunderground v.1.15,2013-05-12 01:55:00,
2013-05-11 22:00:00,61.0,55.8,29.75,WSW,248,1.0,-999.0,83,0.00,,,0.00,Wunderground v.1.15,2013-05-12 02:00:00,
2013-05-11 22:05:00,61.0,55.8,29.75,WSW,248,1.0,-999.0,83,0.00,,,0.00,Wunderground v.1.15,2013-05-12 02:05:00,
2013-05-11 22:10:00,61.0,55.8,29.75,WSW,248,1.0,-999.0,83,0.00,,,0.00,Wunderground v.1.15,2013-05-12 02:10:00,
2013-05-11 22:15:00,60.5,55.3,29.76,WSW,248,1.0,-999.0,83,0.00,,,0.00,Wunderground v.1.15,2013-05-12 02:15:00,
2013-05-11 22:20:00,60.5,55.3,29.76,WSW,248,1.0,-999.0,83,0.00,,,0.00,Wunderground v.1.15,2013-05-12 02:20:00,
2013-05-11 22:25:00,60.5,55.3,29.76,WSW,248,1.0,-999.0,83,0.00,,,0.00,Wunderground v.1.15,2013-05-12 02:25:00,
2013-05-11 22:30:00,60.5,55.3,29.76,WSW,248,1.0,-999.0,83,0.00,,,0.00,Wunderground v.1.15,2013-05-12 02:30:00,
2013-05-11 22:35:00,60.5,55.3,29.76,WSW,248,1.0,-999.0,83,0.00,,,0.00,Wunderground v.1.15,2013-05-12 02:35:00,
2013-05-11 22:40:00,60.5,55.3,29.76,WSW,248,1.0,-999.0,83,0.00,,,0.00,Wunderground v.1.15,2013-05-12 02:40:00,
2013-05-11 22:45:00,58.8,55.6,29.77,West,270,1.0,-999.0,89,0.00,,,0.00,Wunderground v.1.15,2013-05-12 02:45:00,
2013-05-11 22:50:00,58.8,55.6,29.77,West,270,1.0,-999.0,89,0.00,,,0.00,Wunderground v.1.15,2013-05-12 02:50:00,
2013-05-11 22:55:00,58.8,55.6,29.77,West,270,1.0,-999.0,89,0.00,,,0.00,Wunderground v.1.15,2013-05-12 02:55:00,
2013-05-11 23:00:00,58.8,55.6,29.77,West,270,1.0,-999.0,89,0.00,,,0.00,Wunderground v.1.15,2013-05-12 03:00:00,
2013-05-11 23:05:00,58.8,55.6,29.77,West,270,1.0,-999.0,89,0.00,,,0.00,Wunderground v.1.15,2013-05-12 03:05:00,
2013-05-11 23:10:00,58.8,55.6,29.77,West,270,1.0,-999.0,89,0.00,,,0.00,Wunderground v.1.15,2013-05-12 03:10:00,
2013-05-11 23:15:00,58.1,55.5,29.77,WSW,248,0.0,-999.0,91,0.00,,,0.00,Wunderground v.1.15,2013-05-12 03:15:00,
2013-05-11 23:20:00,58.1,55.5,29.77,WSW,248,0.0,-999.0,91,0.00,,,0.00,Wunderground v.1.15,2013-05-12 03:20:00,
2013-05-11 23:25:00,58.1,55.5,29.77,WSW,248,0.0,-999.0,91,0.00,,,0.00,Wunderground v.1.15,2013-05-12 03:25:00,
2013-05-11 23:30:00,58.1,55.5,29.77,WSW,248,0.0,-999.0,91,0.00,,,0.00,Wunderground v.1.15,2013-05-12 03:30:00,
2013-05-11 23:35:00,58.1,55.5,29.77,WSW,248,0.0,-999.0,91,0.00,,,0.00,Wunderground v.1.15,2013-05-12 03:35:00,
2013-05-11 23:40:00,58.1,55.5,29.77,WSW,248,0.0,-999.0,91,0.00,,,0.00,Wunderground v.1.15,2013-05-12 03:40:00,
2013-05-11 23:45:00,57.5,54.9,29.78,West,270,0.0,-999.0,91,0.00,,,0.00,Wunderground v.1.15,2013-05-12 03:45:00,
2013-05-11 23:50:00,57.5,54.9,29.78,West,270,0.0,-999.0,91,0.00,,,0.00,Wunderground v.1.15,2013-05-12 03:50:00,
2013-05-11 23:55:00,57.5,54.9,29.78,West,270,0.0,-999.0,91,0.00,,,0.00,Wunderground v.1.15,2013-05-12 03:55:00,